• In Portugal
  • List of Countries
  • For 7 days
  • Water Temperature
  • Satellite Maps
  • Weather Map
  • Weather Widgets
  • user-avatar
    Login

    Hourly Weather Eisenstadt

    Today, 27 May, Sunday

    Time Temperature Precipitation Wind Pressure Humidity
    00:00 +16°C° 0 mm 1 mps 726 mmHg 87%
    01:00 +15°C° 0 mm 1 mps 726 mmHg 88%
    02:00 +15°C° 0 mm 1 mps 726 mmHg 88%
    03:00 +15°C° 0 mm 1 mps 726 mmHg 89%
    04:00 +14°C° 0 mm 1 mps 725 mmHg 90%
    05:00 +15°C° 0 mm 0 mps 726 mmHg 85%
    06:00 +17°C° 0 mm 0 mps 726 mmHg 80%
    07:00 +19°C° 0 mm 0 mps 726 mmHg 75%
    08:00 +22°C° 0 mm 1 mps 726 mmHg 69%
    09:00 +24°C° 0 mm 1 mps 726 mmHg 64%
    10:00 +25°C° 0 mm 1 mps 726 mmHg 58%
    11:00 +26°C° 0 mm 2 mps 726 mmHg 56%
    12:00 +26°C° 0 mm 2 mps 726 mmHg 54%
    13:00 +27°C° 0 mm 2 mps 726 mmHg 52%
    14:00 +27°C° 0.1 mm 2 mps 725 mmHg 53%
    15:00 +27°C° 0.1 mm 2 mps 725 mmHg 55%
    16:00 +26°C° 0.1 mm 2 mps 725 mmHg 56%
    17:00 +25°C° 0 mm 2 mps 725 mmHg 62%
    18:00 +24°C° 0 mm 1 mps 725 mmHg 68%
    19:00 +22°C° 0 mm 1 mps 725 mmHg 74%
    20:00 +21°C° 0.2 mm 1 mps 725 mmHg 77%
    21:00 +20°C° 0.2 mm 1 mps 725 mmHg 79%
    22:00 +19°C° 0.2 mm 1 mps 725 mmHg 82%
    23:00 +19°C° 0.2 mm 1 mps 725 mmHg 83%

    Tomorrow, 28 May, Monday

    Time Temperature Precipitation Wind Pressure Humidity
    00:00 +19°C° 0.2 mm 1 mps 725 mmHg 84%
    01:00 +18°C° 0.2 mm 1 mps 725 mmHg 86%
    02:00 +18°C° 0 mm 1 mps 725 mmHg 87%
    03:00 +18°C° 0 mm 1 mps 725 mmHg 88%
    04:00 +16°C° 0 mm 1 mps 725 mmHg 89%
    05:00 +19°C° 0 mm 1 mps 725 mmHg 85%
    06:00 +20°C° 0 mm 1 mps 725 mmHg 81%
    07:00 +22°C° 0 mm 1 mps 726 mmHg 77%
    08:00 +23°C° 0 mm 1 mps 726 mmHg 71%
    09:00 +25°C° 0 mm 2 mps 726 mmHg 66%
    10:00 +26°C° 0 mm 2 mps 726 mmHg 61%
    11:00 +27°C° 0.2 mm 3 mps 725 mmHg 60%
    12:00 +27°C° 0.2 mm 3 mps 725 mmHg 59%
    13:00 +28°C° 0.2 mm 3 mps 725 mmHg 58%
    14:00 +27°C° 0.7 mm 3 mps 725 mmHg 60%
    15:00 +27°C° 0.7 mm 3 mps 724 mmHg 63%
    16:00 +27°C° 0.7 mm 2 mps 724 mmHg 66%
    17:00 +25°C° 0.4 mm 2 mps 724 mmHg 70%
    18:00 +24°C° 0.4 mm 2 mps 724 mmHg 75%
    19:00 +23°C° 0.4 mm 2 mps 724 mmHg 79%
    20:00 +21°C° 0.3 mm 2 mps 724 mmHg 81%
    21:00 +20°C° 0.3 mm 2 mps 724 mmHg 83%
    22:00 +19°C° 0.3 mm 2 mps 724 mmHg 85%
    23:00 +19°C° 0.1 mm 2 mps 724 mmHg 86%

    Day after tomorrow, 29 May, Tuesday

    Time Temperature Precipitation Wind Pressure Humidity
    00:00 +18°C° 0.1 mm 2 mps 724 mmHg 88%
    01:00 +18°C° 0.1 mm 2 mps 724 mmHg 89%
    02:00 +18°C° 0.2 mm 2 mps 724 mmHg 90%
    03:00 +18°C° 0.2 mm 2 mps 723 mmHg 90%
    04:00 +18°C° 0.2 mm 2 mps 723 mmHg 91%
    05:00 +19°C° 0 mm 2 mps 723 mmHg 89%
    06:00 +20°C° 0 mm 2 mps 723 mmHg 86%
    07:00 +21°C° 0 mm 3 mps 723 mmHg 83%
    08:00 +22°C° 0.1 mm 3 mps 723 mmHg 76%
    09:00 +25°C° 0.1 mm 4 mps 723 mmHg 70%
    10:00 +26°C° 0.1 mm 5 mps 723 mmHg 63%
    11:00 +26°C° 0.8 mm 5 mps 723 mmHg 64%
    12:00 +26°C° 0.8 mm 5 mps 723 mmHg 65%
    13:00 +26°C° 0.8 mm 5 mps 722 mmHg 67%
    14:00 +26°C° 1.1 mm 4 mps 722 mmHg 69%
    15:00 +25°C° 1.1 mm 4 mps 722 mmHg 72%
    16:00 +25°C° 1.1 mm 3 mps 721 mmHg 74%
    17:00 +24°C° 0.3 mm 3 mps 721 mmHg 78%
    18:00 +22°C° 0.3 mm 3 mps 721 mmHg 81%
    19:00 +21°C° 0.3 mm 2 mps 721 mmHg 84%
    20:00 +20°C° 0.1 mm 2 mps 721 mmHg 85%
    21:00 +19°C° 0.1 mm 2 mps 721 mmHg 86%
    22:00 +19°C° 0.1 mm 2 mps 721 mmHg 87%
    23:00 +18°C° 0.4 mm 2 mps 721 mmHg 89%

    30 May, Wednesday

    Time Temperature Precipitation Wind Pressure Humidity
    00:00 +18°C° 0.4 mm 2 mps 721 mmHg 90%
    01:00 +18°C° 0.4 mm 2 mps 721 mmHg 92%
    02:00 +17°C° 0.4 mm 2 mps 720 mmHg 92%
    03:00 +17°C° 0.4 mm 2 mps 720 mmHg 92%
    04:00 +17°C° 0.4 mm 2 mps 720 mmHg 93%
    05:00 +18°C° 0.2 mm 2 mps 720 mmHg 91%
    06:00 +18°C° 0.2 mm 2 mps 720 mmHg 89%
    07:00 +19°C° 0.2 mm 2 mps 721 mmHg 86%
    08:00 +20°C° 0.3 mm 2 mps 721 mmHg 83%
    09:00 +20°C° 0.3 mm 2 mps 721 mmHg 80%
    10:00 +21°C° 0.3 mm 3 mps 721 mmHg 76%
    11:00 +22°C° 0.1 mm 3 mps 721 mmHg 74%
    12:00 +22°C° 0.1 mm 3 mps 721 mmHg 72%
    13:00 +24°C° 0.1 mm 3 mps 721 mmHg 70%
    14:00 +24°C° 0.1 mm 3 mps 720 mmHg 70%
    15:00 +24°C° 0.1 mm 2 mps 720 mmHg 70%
    16:00 +25°C° 0.1 mm 2 mps 720 mmHg 70%
    17:00 +24°C° 0.2 mm 2 mps 720 mmHg 75%
    18:00 +23°C° 0.2 mm 2 mps 720 mmHg 81%
    19:00 +20°C° 0.2 mm 2 mps 720 mmHg 86%
    20:00 +20°C° 0.4 mm 2 mps 720 mmHg 88%
    21:00 +20°C° 0.4 mm 1 mps 719 mmHg 91%
    22:00 +19°C° 0.4 mm 1 mps 719 mmHg 93%
    23:00 +18°C° 1.3 mm 1 mps 719 mmHg 94%

    31 May, Thursday

    Time Temperature Precipitation Wind Pressure Humidity
    00:00 +18°C° 1.3 mm 1 mps 719 mmHg 94%
    01:00 +18°C° 1.3 mm 1 mps 719 mmHg 95%
    02:00 +16°C° 1.2 mm 1 mps 719 mmHg 96%
    03:00 +16°C° 1.2 mm 1 mps 719 mmHg 96%
    04:00 +16°C° 1.2 mm 1 mps 719 mmHg 97%
    05:00 +18°C° 0.5 mm 1 mps 719 mmHg 95%
    06:00 +18°C° 0.5 mm 1 mps 719 mmHg 94%
    07:00 +18°C° 0.5 mm 2 mps 720 mmHg 93%
    08:00 +19°C° 0.3 mm 2 mps 720 mmHg 90%
    09:00 +20°C° 0.3 mm 2 mps 720 mmHg 87%
    10:00 +20°C° 0.3 mm 2 mps 720 mmHg 85%
    11:00 +21°C° 0.7 mm 2 mps 720 mmHg 81%
    12:00 +23°C° 0.7 mm 2 mps 720 mmHg 78%
    13:00 +23°C° 0.7 mm 2 mps 720 mmHg 75%
    14:00 +24°C° 0.8 mm 2 mps 720 mmHg 73%
    15:00 +24°C° 0.8 mm 2 mps 720 mmHg 70%
    16:00 +25°C° 0.8 mm 2 mps 720 mmHg 67%
    17:00 +24°C° 0.6 mm 1 mps 720 mmHg 72%
    18:00 +23°C° 0.6 mm 1 mps 720 mmHg 77%
    19:00 +21°C° 0.6 mm 1 mps 720 mmHg 81%
    20:00 +21°C° 0 mm 1 mps 720 mmHg 83%
    21:00 +20°C° 0 mm 1 mps 720 mmHg 84%
    22:00 +19°C° 0 mm 1 mps 720 mmHg 86%
    23:00 +18°C° 0 mm 1 mps 720 mmHg 86%

    1 June, Friday

    Time Temperature Precipitation Wind Pressure Humidity
    00:00 +18°C° 0 mm 1 mps 720 mmHg 86%
    01:00 +18°C° 0 mm 1 mps 721 mmHg 86%
    02:00 +16°C° 0 mm 1 mps 721 mmHg 87%
    03:00 +16°C° 0 mm 1 mps 721 mmHg 88%
    04:00 +16°C° 0 mm 1 mps 721 mmHg 88%
    05:00 +18°C° 0 mm 1 mps 721 mmHg 85%
    06:00 +20°C° 0 mm 1 mps 722 mmHg 82%
    07:00 +21°C° 0 mm 1 mps 722 mmHg 79%
    08:00 +22°C° 0.2 mm 1 mps 722 mmHg 74%
    09:00 +24°C° 0.2 mm 2 mps 723 mmHg 69%
    10:00 +25°C° 0.2 mm 2 mps 723 mmHg 63%
    11:00 +26°C° 0.4 mm 2 mps 723 mmHg 62%
    12:00 +26°C° 0.4 mm 2 mps 723 mmHg 60%
    13:00 +26°C° 0.4 mm 3 mps 723 mmHg 59%
    14:00 +26°C° 0.3 mm 2 mps 723 mmHg 58%
    15:00 +26°C° 0.3 mm 2 mps 723 mmHg 58%
    16:00 +26°C° 0.3 mm 2 mps 723 mmHg 57%
    17:00 +25°C° 0 mm 2 mps 723 mmHg 62%
    18:00 +24°C° 0 mm 1 mps 723 mmHg 67%
    19:00 +22°C° 0 mm 1 mps 723 mmHg 72%
    20:00 +21°C° 0 mm 1 mps 723 mmHg 74%
    21:00 +20°C° 0 mm 1 mps 723 mmHg 76%
    22:00 +19°C° 0 mm 1 mps 723 mmHg 78%
    23:00 +19°C° 0 mm 1 mps 724 mmHg 79%
    Show more